Regional Weather Roundup
Issued by NWS

Home | Current Version | Previous Version | Graphics & Text | Print | Product List | Glossary On
Versions: 1 2 3 4 5 6 7 8 9 10 11 12 13 14 15 16 17 18 19 20 21 22 23 24 25 26 27 28 29 30 31 32 33 34 35 36 37 38 39 40 41 42 43 44 45 46 47 48 49 50
000
ASUS43 KMPX 190910
RWRMN
WEATHER ROUNDUP FOR MINNESOTA
NATIONAL WEATHER SERVICE TWIN CITIES/CHANHASSEN MN
400 AM CDT FRI SEP 19 2014


NOTE: "FAIR" INDICATES FEW OR NO CLOUDS BELOW 12,000 FEET WITH NO
SIGNIFICANT WEATHER AND/OR OBSTRUCTIONS TO VISIBILITY. N/A MEANS
CURRENT SKY AND/OR WEATHER CONDITIONS ARE NOT AVAILABLE.

MNZ060>063-068>070-191000-
   Twin Cities Metro

CITY           SKY/WX    TMP DP  RH WIND       PRES   REMARKS
TWIN CITIES    PTCLDY    58  52  80 SE9       29.95F
ST PAUL        PTCLDY    57  53  86 SE10      29.97F
CRYSTAL        PTCLDY    60  52  74 SE12      29.92F
BLAINE         MOCLDY    61  54  77 SE14      29.93F
LAKEVILLE      CLEAR     55  52  88 S6        29.96F
EDEN PRAIRIE   PTCLDY    57  53  86 S10       29.93F
SOUTH ST PAUL  PTCLDY    59  52  78 S8        29.96F
LAKE ELMO      FAIR      59  54  82 S10G16    29.98F
$$
MNZ001>005-007-008-013>017-022>024-027-028-191000-
   Northwest Minnesota

CITY           SKY/WX    TMP DP  RH WIND       PRES   REMARKS
BEMIDJI        LGT RAIN  61  53  75 S15G25    29.74F
HALLOCK        CLOUDY    66  57  72 S14       29.56F
ROSEAU         CLOUDY    64  55  72 S12G18    29.64R
WARROAD        CLOUDY    64  55  72 SW10G16   29.64R
THIEF RVR FALL CLOUDY    64  55  72 S21G28    29.65S
CROOKSTON      CLOUDY    64  55  72 S16G29    29.66S
FOSSTON        CLOUDY    61  54  77 S21G28    29.70R
DETROIT LAKES  CLOUDY    63  54  72 S16       29.77F
MOORHEAD       CLOUDY    64  57  77 S13       29.72F
PARK RAPIDS    CLOUDY    60  52  74 S15       29.80F
MAHNOMEN       FAIR      63  55  75 S21G29    29.72F
$$
MNZ006-009>011-018-025>026-191000-
   North Central Minnesota

CITY           SKY/WX    TMP DP  RH WIND       PRES   REMARKS
BAUDETTE       CLOUDY    61  53  75 S15G24    29.65F
FLAG ISLAND    CLOUDY    59  55  88 S15       29.61S
INTL FALLS     CLOUDY    56  51  84 VRB7      29.72F
WASKISH        CLOUDY    61  54  77 S8G17     29.68F
BIG FORK       CLOUDY    57  52  82 S14G20    29.79F
LONGVILLE      CLOUDY    59  52  77 S14G29    29.82F
GRAND RAPIDS   CLOUDY    55  52  88 S13       29.85S
CRANE LAKE     CLOUDY    54  52  94 S7        29.82F
ORR            CLOUDY    54  50  87 S9        29.79F
COOK           CLOUDY    55  52  88 S10G17    29.84S
WALKER         DRIZZLE   59  51  75 SE7G17    29.78F
$$
MNZ012-019>021-037-191000-
   Northeast Minnesota

CITY           SKY/WX    TMP DP  RH WIND       PRES   REMARKS
DULUTH         CLOUDY    53  50  89 S9        29.92F FOG
ELY            CLOUDY    54  50  87 S12G20    29.87F
HIBBING        CLOUDY    56  52  86 S9G18     29.87F
EVELETH        CLOUDY    54  52  94 S12G17    29.88F
DULUTH HARBOR  CLOUDY    54  52  94 CALM      29.94F
TWO HARBORS    CLOUDY    48  43  81 CALM      29.92F
SILVER BAY     CLOUDY    45  45 100 CALM      29.92F
GRAND MARAIS     N/A     50  45  83 NE3       29.96F
G MARAIS ARPRT FOG       46  45  93 S8        29.95F VSB 1
$$
MNZ029>031-032-039>041-046>048-054>057-064-191000-
   West Central Minnesota

CITY           SKY/WX    TMP DP  RH WIND       PRES   REMARKS
FERGUS FALLS   MOCLDY    63  52  67 S18G24    29.78S
WHEATON        CLOUDY    59  54  82 SE17      29.77F
MORRIS         CLOUDY    61  54  77 S16G22    29.80F
ALEXANDRIA     CLOUDY    60  52  74 S14G24    29.85F
ELBOW LAKE     FAIR      60  53  77 S20G28    29.78F
WADENA         CLOUDY    61  52  72 S12       29.82F
GLENWOOD       CLOUDY    59  54  82 S21G29    29.85F
APPLETON       CLOUDY    63  54  72 S9        29.81F
BENSON         CLOUDY    59  54  82 S12G18    29.83F
ORTONVILLE     MOCLDY    63  54  72 S9        29.79F
MADISON        CLOUDY    64  55  72 S13       29.82S
WILLMAR        FAIR      57  52  82 SE9       29.88F
$$
MNZ033>034-036-042>043-049>051-058-059-191000-
   Central Minnesota

CITY           SKY/WX    TMP DP  RH WIND       PRES   REMARKS
ST CLOUD       PTCLDY    61  52  72 S10       29.90F
SAUK CENTRE    FAIR      59  52  79 S16G24    29.87S
PAYNESVILLE    MOCLDY    56  51  84 SE13G24   29.88F
AITKIN         CLOUDY    61  54  77 S12G17    29.85F
PINE RIVER     CLOUDY    59  52  77 S13       29.89S
BRAINERD       CLOUDY    58  51  78 S13       29.87F
STAPLES        CLOUDY    57  48  72 S6        29.86R
LONG PRAIRIE   FAIR      59  52  77 S14G21    29.87F
LITTLE FALLS   CLOUDY    59  50  72 S7        29.88F
LITCHFIELD     PTCLDY    59  55  88 S6        29.91S
BUFFALO        PTCLDY    58  51  78 S6        29.93F
MAPLE LAKE     PTCLDY    59  54  84 S5        29.93S
$$
MNZ037-044-045-052-053-191000-
   East Central Minnesota

CITY           SKY/WX    TMP DP  RH WIND       PRES   REMARKS
PRINCETON      PTCLDY    59  54  82 S10       29.92F
MORA           MOCLDY    55  52  88 S5        29.93F
CAMBRIDGE      MOCLDY    61  50  67 S8        29.91F
RUSH CITY      MOCLDY    55  53  92 S6        29.93F
MOOSE LAKE     CLOUDY    54  52  94 S7        29.89F
HINCKLEY       FAIR      55  54  94 S9        29.93F
CLOQUET        CLOUDY    50  48  93 SE3       29.92S
MCGREGOR       MOCLDY    55  54  94 S10       29.88F
$$
MNZ071>073-080-081-089-090-097-098-191000-
   Southwest Minnesota

CITY           SKY/WX    TMP DP  RH WIND       PRES   REMARKS
MONTEVIDEO     CLOUDY    61  55  82 S12G17    29.85F
GRANITE FALLS  CLOUDY    61  56  82 SE14G21   29.87S
CANBY          CLOUDY    63  55  76 S13G18    29.83F
MARSHALL         N/A    N/A N/A N/A MISG      29.83F
REDWOOD FALLS  CLOUDY    61  55  81 S16       29.87F
OLIVIA         CLOUDY    57  52  82 S10       29.87F
PIPESTONE      PTCLDY    59  55  88 S17       29.85F
WINDOM         MOCLDY    61  55  82 S17G23    29.90F
WORTHINGTON    CLOUDY    59  55  88 S15G28    29.91F
JACKSON        PTCLDY    59  54  82 S15G24    29.93F
TRACY          MOCLDY    62  57  85 S14G23    29.86F
SLAYTON        MOCLDY    59  56  89 S17G24    29.89F
$$
MNZ065>067-074>077-082>085-091>093-191000-
   South Central Minnesota

CITY           SKY/WX    TMP DP  RH WIND       PRES   REMARKS
MANKATO        MOCLDY    57  48  72 S10       29.95S
NEW ULM        MOCLDY    57  55  94 S10         N/A
ST JAMES       MOCLDY    61  55  82 S16       29.93F
FAIRMONT       PTCLDY    57  48  72 S13       29.95S
GLENCOE        CLEAR     59  51  75 S7        29.91F
FARIBAULT      CLEAR     61  50  67 S12G18    29.97F
OWATONNA       CLEAR     57  52  82 S12       29.98F
WASECA         CLEAR     54  46  76 SE6       29.98F
ALBERT LEA     PTCLDY    57  52  82 S12       29.99F
$$
MNZ078>079-086>088-094>096-191000-
   Southeast Minnesota

CITY           SKY/WX    TMP DP  RH WIND       PRES   REMARKS
ROCHESTER      PTCLDY    54  50  86 S14       30.03F
RED WING       PTCLDY    57  52  82 S7        30.00S
STANTON        PTCLDY    58  51  79 S9G16     29.96F
DODGE CENTER   CLEAR     55  52  88 S13       30.00F
WINONA         PTCLDY    57  52  82 SE3       30.04F
AUSTIN         CLEAR     54  50  87 S9        30.01F
PRESTON        PTCLDY    53  53  99 S10G17    30.04F
$$
ABBREVIATIONS USED IN REMARKS
   TC - TEMPERATURES IN CELSIUS
  WCI - WIND CHILL INDEX
   HX - HEAT INDEX
  VSB - VISIBILITY
$$


USA.gov is the U.S. government's official web portal to all federal, state and local government web resources and services.